Theta_e
293 288 285 288 288 286 286 285 285 286 292 291 290 289 291 293 292 293 293 293 294 295 299 299 299 300 305 311 316 322 326 328 329 329 328 329 330 330 330 328 326 323 323 320
289 284 290 291 290 288 286 285 284 288 290 290 288 288 291 292 293 295 295 294 294 293 294 298 298 297 298 307 315 320 324 327 328 329 329 328 330 329 330 329 326 324 323 320
286 289 293 292 289 288 286 285 285 286 287 287 286 284 287 290 291 294 295 296 297 295 294 295 296 297 297 301 311 318 323 325 328 328 319 312 314 313 315 322 325 324 323 320
289 293 291 289 288 289 284 289 289 287 284 280 285 278 283 288 290 291 294 295 292 293 295 296 297 296 296 300 309 317 322 323 326 325 319 320 320 320 321 322 322 320 322 320
287 289 290 287 288 290 287 290 287 286 283 281 281 280 283 285 286 290 292 293 293 293 294 295 296 297 297 298 304 311 317 318 319 320 322 320 320 321 306 307 314 314 312 317
288 292 291 291 290 291 292 289 287 285 282 277 281 281 279 284 288 288 292 293 296 298 297 296 297 297 297 298 304 309 314 316 318 318 319 319 320 305 303 302 308 310 309 310
287 288 290 292 289 290 288 284 277 276 276 276 280 279 282 287 290 291 294 294 296 297 296 296 296 297 298 298 300 305 309 310 311 313 312 312 313 305 306 303 306 307 307 302
284 282 289 292 290 288 286 284 278 272 274 276 281 279 285 290 293 294 295 296 295 294 296 296 297 297 297 298 298 299 302 305 307 308 307 307 307 307 306 302 301 304 306 308
283 283 290 290 291 292 287 283 286 280 270 274 279 283 288 290 292 292 292 293 291 295 296 295 296 296 296 297 298 299 299 300 301 303 303 303 303 303 302 300 300 300 300 300
287 281 287 289 292 290 288 291 283 281 272 271 278 278 282 288 289 292 293 294 294 296 296 296 296 295 296 296 297 298 299 299 299 300 301 302 301 301 300 299 298 297 297 297
290 285 283 287 286 285 286 285 285 285 281 277 274 279 286 288 293 292 293 293 293 294 294 293 293 294 294 295 296 297 297 298 298 299 299 299 299 300 299 298 297 297 295 294
290 286 279 283 288 288 287 286 286 280 277 279 279 281 291 293 293 294 293 293 293 293 292 292 293 293 293 294 294 295 296 296 297 298 297 298 298 298 297 296 295 293 294 291
292 284 274 281 285 288 285 287 289 286 282 280 277 280 291 291 293 294 294 293 293 295 294 292 292 292 293 293 294 294 295 296 296 296 296 296 296 296 295 295 293 292 291 289
296 286 283 280 283 287 284 286 287 287 279 281 283 284 289 289 291 293 295 295 295 294 294 294 293 293 293 293 293 293 294 295 295 296 295 295 294 295 294 293 291 290 288 287
293 285 286 288 289 289 286 286 288 286 287 283 286 286 288 291 293 293 293 294 293 292 293 293 294 294 293 294 294 294 294 294 295 295 294 295 294 293 293 290 289 288 286 286
292 285 286 284 288 288 285 289 287 287 288 288 287 288 294 292 292 290 291 291 290 291 292 293 293 294 294 294 294 293 293 293 292 293 293 293 291 290 289 289 288 286 286 284
289 285 284 280 285 284 281 285 288 287 289 290 286 290 291 287 289 288 289 289 290 291 292 292 293 293 293 292 292 291 290 290 289 288 289 289 289 288 288 288 286 286 285 283
286 285 283 279 282 275 283 285 290 288 289 291 287 286 287 287 289 290 289 288 289 290 291 292 292 292 292 291 291 289 286 286 286 287 287 287 286 286 287 286 286 285 283 283
291 286 281 278 272 276 280 283 285 286 286 289 288 286 286 287 288 287 288 288 289 290 291 292 292 291 290 289 288 284 284 284 285 285 286 286 286 285 285 284 285 284 282 281
287 287 282 275 271 268 278 281 286 287 279 285 286 286 285 285 282 284 287 288 288 288 289 289 289 288 287 286 285 284 284 283 284 284 285 285 284 283 284 285 284 280 283 283
281 283 280 276 271 272 280 283 286 279 278 280 284 285 284 281 282 285 286 285 286 287 288 287 285 284 284 285 284 283 283 283 285 283 283 283 282 282 283 283 278 277 279 278
280 279 278 277 273 273 281 283 281 280 281 282 282 282 282 282 282 282 284 283 283 283 284 284 283 283 284 284 283 283 283 286 282 281 280 280 280 280 281 278 276 274 275 276
274 278 276 279 279 282 280 282 284 283 281 281 280 281 283 282 281 280 282 282 282 282 282 281 279 281 281 281 279 281 283 284 282 279 279 279 278 278 276 274 275 274 275 278
276 280 276 277 281 280 281 282 281 282 281 282 282 282 281 279 280 280 280 280 280 280 280 279 278 278 279 280 280 279 281 281 279 278 279 279 277 278 279 277 278 280 279 280
278 279 274 274 279 282 281 281 281 281 281 280 280 280 278 277 278 278 277 277 278 278 276 275 275 276 276 276 276 278 280 278 277 278 278 278 278 277 280 280 280 280 282 282
278 277 276 273 281 280 280 280 280 279 277 277 277 276 276 277 276 274 273 274 273 272 272 272 272 271 271 271 271 274 276 277 277 277 279 278 277 277 276 279 280 283 284 284
Wind_Speed
1 5 7 11 9 4 5 3 2 3 4 6 8 8 11 10 7 13 11 12 13 14 12 10 11 12 13 9 11 15 16 15 12 10 11 11 11 10 10 10 14 15 13 14
5 5 10 5 4 5 4 3 5 5 0 4 5 12 11 8 12 14 14 14 15 8 6 11 10 9 12 17 16 15 16 16 15 12 11 7 10 9 10 9 12 14 15 15
8 6 7 6 5 6 5 6 5 6 2 3 4 10 6 5 6 7 10 13 14 9 10 11 10 11 10 13 16 16 17 18 17 16 6 4 5 3 3 6 9 12 15 15
5 5 7 6 6 7 5 5 5 3 3 4 2 9 5 6 8 8 15 14 10 8 9 9 9 8 10 13 13 14 15 15 14 12 11 13 10 10 9 8 6 7 13 14
9 7 8 5 7 7 7 4 4 2 3 2 2 0 10 3 5 14 11 11 11 10 9 10 10 9 8 7 9 8 8 9 9 14 15 13 12 8 3 2 9 6 6 9
6 0 6 8 3 5 8 7 8 5 3 5 9 9 6 5 7 4 5 5 6 3 2 4 2 1 1 4 6 7 10 12 12 13 12 13 14 6 5 4 6 6 4 5
1 3 1 4 7 3 5 8 2 4 2 8 1 2 10 6 9 6 5 6 7 4 4 6 5 2 3 6 6 5 6 5 5 7 7 8 8 9 10 8 7 7 5 3
9 4 9 6 8 11 8 10 9 9 5 5 3 7 7 5 7 10 8 8 5 2 4 5 5 3 4 3 2 3 5 5 6 6 6 6 6 6 5 6 5 7 7 8
7 6 1 3 5 11 7 7 6 6 2 4 6 6 10 6 10 10 12 10 6 5 4 4 5 4 5 5 4 2 1 1 2 4 4 6 6 7 8 8 8 6 6 6
7 3 1 2 4 2 7 9 4 3 3 5 5 4 7 7 6 5 7 11 11 7 6 8 8 7 6 5 4 4 3 1 1 4 5 5 7 7 7 7 9 8 8 7
6 5 1 5 8 11 4 4 3 6 6 7 1 7 7 5 3 6 7 7 7 8 7 6 6 6 5 5 5 4 3 2 2 3 3 5 6 6 6 7 7 8 6 8
9 6 5 8 3 5 3 8 8 7 5 5 4 7 4 9 7 9 7 6 6 6 5 4 4 4 4 5 5 5 5 4 4 4 4 6 6 6 6 6 7 7 8 7
10 5 4 5 4 1 5 5 7 4 4 9 7 6 4 6 9 6 7 6 6 8 10 8 7 6 5 5 5 5 5 5 5 4 6 6 6 6 7 7 6 6 7 7
7 3 9 13 4 7 6 5 7 10 6 5 16 4 7 5 6 5 6 6 7 8 8 7 8 8 7 6 6 6 6 4 5 6 6 7 7 7 6 7 7 7 7 8
4 5 3 4 5 4 3 7 8 15 15 13 14 19 5 4 8 8 7 8 9 9 10 10 9 8 8 9 9 8 7 6 5 6 7 9 7 6 7 7 7 7 7 7
3 3 3 3 4 1 2 6 5 4 3 8 3 16 5 7 8 10 7 8 9 8 9 9 9 10 10 9 9 9 9 8 6 7 8 7 6 6 7 7 7 7 7 6
8 6 4 4 5 5 5 18 14 5 6 7 13 11 3 5 7 6 7 7 6 6 5 6 6 6 7 8 7 9 10 11 12 9 9 7 6 7 8 7 7 8 9 7
10 7 3 4 6 7 5 2 17 20 6 10 3 4 6 7 6 7 6 5 6 6 7 7 6 7 6 5 6 8 8 8 8 9 10 9 7 7 7 6 8 7 6 10
4 6 4 5 5 5 4 5 8 12 12 7 8 8 4 4 5 3 6 5 4 5 5 4 5 5 7 7 6 6 7 7 7 9 9 9 7 9 7 7 8 7 5 6
2 6 4 3 6 9 6 0 3 4 5 7 8 7 5 6 5 2 5 5 6 6 4 6 7 6 6 7 7 7 7 7 8 8 10 9 7 7 9 9 7 4 6 9
4 3 9 4 3 8 7 3 1 9 6 4 7 7 6 5 3 1 5 5 4 4 7 7 7 6 7 7 6 7 7 9 7 7 8 9 7 7 8 8 3 4 6 4
9 7 4 4 2 11 6 3 8 4 4 7 6 6 6 4 0 2 6 6 7 8 8 7 6 7 9 7 5 8 10 10 6 6 7 7 7 6 5 6 4 3 3 5
3 6 7 7 5 0 1 6 6 8 10 6 7 4 4 3 3 3 3 5 6 8 8 5 5 9 8 7 4 9 11 12 12 9 10 8 7 6 4 4 5 2 3 5
3 2 4 5 3 4 10 6 7 7 7 6 4 3 3 2 4 3 4 5 6 5 7 7 11 13 13 10 9 8 10 10 11 11 12 9 6 7 5 3 3 5 5 6
3 6 6 1 4 7 2 5 7 7 8 8 6 5 5 5 4 4 3 3 5 6 7 9 9 10 13 14 14 14 12 8 12 11 10 10 7 6 7 5 6 7 7 8
4 6 5 5 10 4 7 6 4 7 5 5 4 2 3 3 4 5 5 5 6 8 9 10 12 13 14 14 15 14 12 12 13 13 10 7 5 5 5 6 6 12 16 14
Wind_Direction
114 108 182 193 194 145 153 170 204 240 216 158 227 251 263 277 299 284 264 261 255 237 242 234 232 218 211 211 196 197 190 192 176 179 180 189 193 189 190 186 184 183 184 182
48 206 221 190 154 176 219 209 235 295 352 165 275 264 249 248 252 244 266 268 260 253 243 249 233 210 200 205 201 199 197 185 186 185 187 188 187 197 185 189 184 184 182 183
158 225 180 161 168 172 195 177 200 216 360 298 324 287 251 281 260 273 253 251 266 245 249 251 244 222 209 203 199 197 195 191 192 186 143 79 84 63 123 195 188 191 183 184
210 214 158 160 187 151 206 205 183 177 86 247 63 286 279 242 269 288 271 265 275 271 255 252 249 235 210 215 205 203 194 188 192 174 170 179 191 192 204 192 193 187 185 185
229 186 195 164 196 168 220 151 160 107 117 18 291 235 278 258 253 256 276 273 269 253 250 262 252 243 234 203 199 180 168 172 171 181 187 191 201 206 116 127 171 181 182 191
183 319 159 192 111 154 142 76 43 52 63 284 200 179 282 239 215 263 260 279 279 254 278 289 333 121 175 132 139 152 163 183 184 188 195 199 203 154 145 157 179 186 195 195
117 208 174 132 90 59 105 87 350 341 355 233 35 156 241 263 257 251 283 285 288 281 321 351 15 48 146 182 182 173 177 176 157 173 178 188 194 169 182 175 189 180 196 196
161 233 169 192 170 173 183 155 165 194 201 258 308 241 247 274 293 269 277 273 330 271 266 260 268 324 349 30 84 123 150 170 179 177 184 178 170 180 192 175 178 196 202 207
160 238 259 161 150 147 193 207 171 94 30 52 226 293 305 304 292 305 321 336 320 258 260 283 308 350 345 349 351 359 65 63 170 188 171 183 176 179 189 182 184 193 190 191
201 147 281 201 122 47 159 163 86 6 149 254 261 242 219 271 343 331 359 11 357 20 41 22 9 3 3 4 7 24 36 260 226 190 189 200 201 200 190 177 192 189 193 184
152 118 276 126 203 163 136 184 156 131 156 190 248 258 218 158 149 61 37 24 21 26 24 18 12 5 0 2 11 2 5 322 268 227 220 223 224 218 209 202 199 200 192 187
190 134 168 197 230 215 185 186 155 152 230 237 162 249 160 133 108 89 67 53 39 55 29 20 13 18 13 7 352 338 328 312 293 286 262 244 238 225 224 221 215 190 198 192
168 203 80 3 345 171 202 187 177 121 83 205 156 244 170 115 81 56 68 53 40 24 34 19 7 7 10 349 327 317 305 290 292 286 270 262 251 237 235 230 216 205 199 197
84 121 188 207 179 143 180 192 191 188 194 168 232 184 224 250 119 101 61 58 55 41 27 17 26 18 14 358 340 325 312 283 279 271 267 265 249 241 235 231 218 210 204 199
103 145 138 123 96 94 167 176 180 202 213 198 250 231 215 335 8 29 57 39 34 26 26 14 8 5 360 358 353 342 325 321 286 271 259 255 243 231 232 226 218 213 209 214
13 147 121 160 216 23 306 236 237 253 232 265 279 266 84 54 72 56 52 51 43 26 19 9 3 2 1 353 347 337 332 330 297 266 263 270 259 240 232 228 218 207 212 207
147 140 144 202 151 141 258 220 218 213 205 212 231 262 108 71 89 85 61 49 35 7 358 355 352 348 339 337 340 337 330 327 330 319 308 294 271 248 244 239 216 222 214 194
145 143 136 132 126 212 243 327 206 203 203 206 110 116 98 134 149 118 76 47 15 357 348 343 350 342 329 321 327 324 321 323 325 317 315 311 296 272 261 233 231 226 203 211
127 124 151 170 200 298 292 183 156 173 235 191 159 138 126 119 115 121 39 18 353 336 330 319 321 313 319 325 324 318 324 323 320 316 311 306 300 286 268 248 241 227 214 217
69 107 138 160 156 201 242 327 88 114 276 165 130 131 125 132 151 175 3 348 349 346 348 344 338 323 321 323 328 331 321 326 314 313 308 304 291 270 272 262 248 211 230 233
148 167 201 166 187 287 252 216 12 159 230 119 113 109 90 97 146 247 328 332 336 324 338 346 342 329 303 311 327 317 306 300 287 300 301 303 299 285 270 270 229 234 223 213
176 166 178 139 131 255 183 90 162 169 58 107 98 107 109 131 180 275 310 330 341 341 337 342 325 320 316 314 316 317 314 305 289 287 290 286 284 289 285 259 261 253 218 233
216 180 177 174 210 289 321 116 86 98 111 118 117 146 139 168 209 297 307 336 332 328 329 324 317 319 315 315 305 306 305 318 310 306 295 289 292 290 275 249 260 261 232 244
278 150 119 95 292 82 112 96 108 115 121 119 95 93 66 32 11 346 334 335 326 326 335 344 330 320 317 323 315 277 287 299 300 294 293 290 284 289 264 242 232 231 226 243
188 127 139 64 79 92 94 113 124 96 83 78 57 55 58 9 323 321 331 316 339 330 336 326 311 310 308 316 313 312 311 304 301 283 278 277 270 263 273 243 235 241 234 223
192 163 164 198 170 139 160 123 87 112 107 83 88 49 355 338 342 342 326 337 325 330 321 319 318 315 310 310 305 310 312 311 306 293 282 271 259 255 242 256 262 243 252 255